Location: Ch�ze
(42.9000°N, 0.0333°W)
Time: 18:46:16
(UTC+00:00)

Meteor 2-19 Rocket - Pass Details

Date: 24 January 2021
Orbit: 935 x 959 km, 82.6° (Epoch: 07 March)

Event Time Altitude Azimuth Distance (km) Brightness Sun altitude
Rises 18:58:10 0° 185° (S) 3,624 7.6 -21.1°
Reaches altitude 10° 19:00:39 10° 184° (S) 2,684 6.9 -21.5°
Maximum altitude 19:06:48 86° 98° (E) 968 4.4 -22.6°
Drops below altitude 10° 19:13:00 10° 9° (N) 2,699 6.7 -23.8°
Sets 19:15:30 0° 9° (N) 3,647 7.4 -24.2°
